Volver al catálogo

STARLINK-33961

ActivoComunicacionesVLEO
NORAD 64047·PAYLOAD·🇺🇸 United States

Lanzado May 16, 2025 desde Vandenberg Space Force Base

Loading…

Próximos Pases (próximas 24 horas)

TLE

ActualizadoSource: CelesTrak SupGP

Época: Sep 15, 2026, 03:27 UTC

1 64047C 25102AB  26258.14423611  .00095948  00000+0  33376-2 0  2582
2 64047  70.0008 355.1969 0003223 267.4866 324.6281 15.29532072    18

Sigue STARLINK-33961 en tiempo real con AllMySat

Download on the App Store